sat.trackr.live / text

‹ back to catalog

STARLINK-36668

NORAD 68177 · 2026-050L

PAYLOAD ACTIVE UNKNOWN

§ Identity

Operator
Country
US
Launch date
2026-03-14
Launch site
AFETR
Launch vehicle
Mass (kg)
RCS (m²)

Purposes: comms

External: N2YO · Heavens-Above · Gunter

§ Orbital elements

Epoch: 2026-09-19T22:33:29.881152Z

Period
93.85 min
Inclination
53.1589°
Eccentricity
0.0001211
Mean motion
15.34395939 rev/d
Perigee alt
461.9 km
Apogee alt
463.5 km
Semi-major
6,840.9 km
B*
2.8534e-4
RAAN
80.2409°
Arg perigee
88.2466°
Mean anomaly
271.8676°
Rev number
3,048

§ Raw data

STARLINK-366681 68177U 26050L   26262.93992918  .00009275  00000+0  28534-3 0  99972 68177  53.1589  80.2409 0001211  88.2466 271.8676 15.34395939 30487

JSON: /api/v1/satellites/68177 · /tle

For live sub-satellite position, see the globe view (requires WebGL).

§ Visibility from observer

Set your observer location to see the next 7 days of passes ≥ 10°. The values pass through the URL so the page stays shareable.

No JS? Fill the form by hand. The geolocation button needs JavaScript.